Flugwetter Haslital by BIRDWING.ch
alle Angaben ohne Gewähr
code & design by arbyte.ch


Planplatten 2245m
19.01.21  18:001|4  NW-2.8°C47%
19.01.21  17:454|10  WNW-2.8°C48%
19.01.21  17:3011|17  WNW-2.7°C48%
19.01.21  17:008|15  NW-2.4°C47%
19.01.21  16:308|13  NW-2.3°C47%
➜ Details Wind Planplatten

Meiringen 589m
19.01.21  18:004|5  SO-4.0°C94%
19.01.21  17:503|4  OSO-3.0°C93%
19.01.21  17:404|6  SO-2.3°C91%
19.01.21  17:103|4  OSO-2.5°C89%
19.01.21  16:502|5  SSO-2.4°C88%

Flugplatz Unterbach 577m
19.01.21  17:504|4  N-6.0°C100%
19.01.21  17:204|4  N-4.0°C125%
19.01.21  16:500|0  N-2.0°C200%
19.01.21  15:500|0  N-2.0°C150%

Brienz 567m
19.01.21  18:006|7  OSO
19.01.21  17:507|9  O
19.01.21  17:407|9  O
19.01.21  17:105|7  O
19.01.21  16:503|4  OSO

Gütsch ob Andermatt 2283m
19.01.21  18:0011|14  SSO-5.4°C43%
19.01.21  17:5012|14  SSO-5.3°C42%
19.01.21  17:4011|16  SSO-5.1°C41%
19.01.21  17:1014|18  SSO-3.6°C39%
19.01.21  16:5012|14  SSO-4.7°C41%

Höhematte Metropole 566m
19.01.21  18:080|0  OSO0.6°C79%
19.01.21  17:580|8  OSO0.7°C78%
19.01.21  17:480|0  O0.5°C80%
19.01.21  17:280|0  OSO1.0°C77%
19.01.21  17:080|0  SO1.5°C76%

Niederhorn 1950m
19.01.21  18:090|0  NW-3.5°C95%
19.01.21  17:590|0  NNW-3.4°C95%
19.01.21  17:490|0  NW-3.4°C95%
19.01.21  17:290|0  WNW-3.3°C95%
19.01.21  17:090|0  NW-2.2°C96%

. . . . . . . . .

Bänzlauistock 2528m
19.01.21  17:300|0  N
19.01.21  17:000|0  N
19.01.21  16:300|0  N
19.01.21  16:000|0  N

Sidelhorn 2733m
19.01.21  17:3010|14  N
19.01.21  17:001|9  NNO
19.01.21  16:301|9  ONO
19.01.21  16:005|13  OSO

Brienzer Rothorn 2348m
19.01.21  17:3036|50  W
19.01.21  17:0031|47  W
19.01.21  16:3032|51  W
19.01.21  16:0036|51  W

Altdorf 438m
19.01.21  18:005|9  SSO-1.5°C90%
19.01.21  17:503|5  S0.3°C86%
19.01.21  17:402|3  SSO-0.2°C87%
19.01.21  17:103|4  SSO-0.2°C85%
19.01.21  16:502|3  SSO0.9°C81%

Flugplatz Buochs 449m
19.01.21  17:504|4  N1.0°C-200%
19.01.21  17:204|4  WSW1.0°C-300%
19.01.21  16:504|4  SSW2.0°C-150%
19.01.21  15:504|4  WSW2.0°C-150%

Flugplatz Alpnach 445m
19.01.21  17:504|4  N
19.01.21  17:205|5  SSW1.0°C-200%
19.01.21  16:500|0  N2.0°C-150%
19.01.21  15:505|5  SSW2.0°C-150%

Chasseral 1599m
19.01.21  18:0059|66  SW0.3°C64%
19.01.21  17:5061|67  SW-0.1°C65%
19.01.21  17:4061|68  SW
19.01.21  17:1053|59  SW0.4°C65%
19.01.21  16:5053|60  SW0.4°C61%

Eggishorn 2893m
19.01.21  18:0021|30  W-7.0°C47%
19.01.21  17:5021|30  W-6.9°C46%
19.01.21  17:4021|34  WSW-6.9°C46%
19.01.21  17:1014|22  W-6.5°C39%
19.01.21  16:5015|26  W-6.9°C45%

Giswil 471m
19.01.21  18:002|4  WNW-1.7°C99%
19.01.21  17:503|5  W-1.4°C98%
19.01.21  17:402|4  WSW-1.1°C99%
19.01.21  17:103|3  W-0.4°C92%
19.01.21  16:503|4  W0.2°C88%

Glarus 517m
19.01.21  18:002|3  NNO-0.5°C89%
19.01.21  17:501|3  WNW-0.3°C89%
19.01.21  17:401|3  OSO0.2°C87%
19.01.21  17:102|4  W0.8°C82%
19.01.21  16:502|4  N1.1°C77%

Gornergrat 3129m
19.01.21  18:009|13  WSW-6.3°C21%
19.01.21  17:509|13  WNW-6.1°C21%
19.01.21  17:4013|15  WNW-6.3°C22%
19.01.21  17:1018|25  WNW-6.0°C22%
19.01.21  16:5018|23  WNW-6.4°C27%

Grimsel Hospiz 1980m
19.01.21  18:0023|38  SSW-3.6°C44%
19.01.21  17:5019|34  S-3.5°C44%
19.01.21  17:4018|33  SW-3.2°C43%
19.01.21  17:1019|31  SW-4.4°C45%
19.01.21  16:5025|39  SSW-3.1°C42%

Jungfraujoch 3580m
19.01.21  18:0026|49  NW-11.6°C73%
19.01.21  17:5027|37  NW-12.6°C71%
19.01.21  17:4030|42  NW-12.7°C72%
19.01.21  17:1026|39  NW-12.5°C70%
19.01.21  16:5021|31  NNW-12.5°C70%

Luzern 454m
19.01.21  18:005|7  SW0.2°C85%
19.01.21  17:505|8  WSW-0.1°C83%
19.01.21  17:402|6  WSW1.8°C74%
19.01.21  17:105|6  SSO1.5°C81%
19.01.21  16:504|5  SO2.0°C72%

Le Moléson 1974m
19.01.21  18:0035|63  SW-1.2°C60%
19.01.21  17:5032|62  WSW-1.0°C43%
19.01.21  17:4032|63  WSW-0.9°C52%
19.01.21  17:1039|75  WSW-0.4°C51%
19.01.21  16:5035|64  WSW-0.7°C39%

Napf 1404m
19.01.21  18:0036|49  SW-1.1°C54%
19.01.21  17:5039|58  SW-1.4°C57%
19.01.21  17:4038|52  SW-1.6°C59%
19.01.21  17:1034|47  SSW-2.4°C68%
19.01.21  16:5034|48  SW-2.2°C69%

Säntis 2502m
19.01.21  18:0056|75  WSW-5.6°C75%
19.01.21  17:5055|77  WSW-5.7°C81%
19.01.21  17:4054|75  WSW-5.8°C77%
19.01.21  17:1058|80  WSW-5.8°C74%
19.01.21  16:5061|84  WSW-5.8°C74%

Stockhorn 2190m
19.01.21  17:3036|46  WSW
19.01.21  17:0026|43  WSW
19.01.21  16:3024|45  WSW

Thun 570m
19.01.21  18:004|8  SSW-1.5°C89%
19.01.21  17:504|5  SSW-2.0°C90%
19.01.21  17:404|6  SSW-1.4°C87%
19.01.21  17:105|7  S-0.9°C86%
19.01.21  16:505|7  S-0.8°C87%

Titlis 3040m
19.01.21  18:0044|54  WSW-8.7°C51%
19.01.21  17:5044|55  WSW-8.6°C46%
19.01.21  17:4042|54  WSW-8.4°C47%
19.01.21  17:1040|53  W-8.9°C49%
19.01.21  16:5041|51  WSW-8.4°C47%


...
QNH Druckwerte vom 19.01.2021 18:00
Interlaken1018.7 hPa
Zürich (SMA)1017.4 hPa
hPa
Locarno/Monti1022.3 hPa
Genève-Cointrin1019.3 hPa

Δ Comprovasco - Interlaken in hPa
19.01.21  18:00 - 1018.7 =
19.01.21  17:50 - 1018.7 =
19.01.21  17:20 - 1018.9 =
19.01.21  16:50 - 1019.0 =
19.01.21  15:50 - 1019.0 =

Δ Locarno - Zürich in hPa
19.01.21  18:001022.3 - 1017.4 =4.9
19.01.21  17:501022.3 - 1017.4 =4.9
19.01.21  17:201022.1 - 1017.5 =4.6
19.01.21  16:501022.1 - 1017.7 =4.4
19.01.21  15:501022.1 - 1017.8 =4.3

Δ Genf - Bodensee in hPa
19.01.21  18:001019.3 - 1017.5 =1.8
19.01.21  17:501019.4 - 1017.4 =2.0
19.01.21  17:201019.5 - 1017.7 =1.8
19.01.21  16:501019.6 - 1017.8 =1.8
19.01.21  15:501019.8 - 1017.8 =2.0

Temp Meiringen - Planplatten in °C/100m
19.01.21  18:00-4.0 - -2.8 = -1.2-0.07
19.01.21  17:20-2.3 - -2.6 = 0.30.02
19.01.21  16:50-2.4 - -2.3 = -0.1-0.01

Temp Lehn - Niederhorn in °C/100m
19.01.21  18:090.4 - -3.5 = 3.90.28
19.01.21  17:391.0 - -3.3 = 4.30.31
19.01.21  17:090.5 - -2.2 = 2.70.20

Temp Luzern - Pilatus in °C/100m
19.01.21  18:000.2 - -1.8 = 2.00.12
19.01.21  17:201.2 - -2.0 = 3.20.19
19.01.21  16:502.0 - -2.2 = 4.20.25